Year,Month,Day,Hour,Minute,Value (Times are PST for temperature in C)
2019,04,07,00,01,8.80
2019,04,07,00,02,8.80
2019,04,07,00,03,8.90
2019,04,07,00,04,8.90
2019,04,07,00,06,8.90
2019,04,07,00,07,8.90
2019,04,07,00,09,8.90
2019,04,07,00,11,8.90
2019,04,07,00,12,8.90
2019,04,07,00,13,8.90
2019,04,07,00,14,8.90
2019,04,07,00,16,8.90
2019,04,07,00,17,8.90
2019,04,07,00,18,8.90
2019,04,07,00,19,8.80
2019,04,07,00,21,8.80
2019,04,07,00,22,8.80
2019,04,07,00,23,8.70
2019,04,07,00,24,8.70
2019,04,07,00,26,8.70
2019,04,07,00,27,8.70
2019,04,07,00,28,8.70
2019,04,07,00,29,8.70
2019,04,07,00,30,8.70
2019,04,07,00,32,8.70
2019,04,07,00,33,8.70
2019,04,07,00,34,8.70
2019,04,07,00,36,8.70
2019,04,07,00,37,8.70
2019,04,07,00,38,8.70
2019,04,07,00,39,8.70
2019,04,07,00,41,8.70
2019,04,07,00,42,8.70
2019,04,07,00,43,8.70
2019,04,07,00,44,8.70
2019,04,07,00,46,8.70
2019,04,07,00,47,8.70
2019,04,07,00,48,8.70
2019,04,07,00,49,8.70
2019,04,07,00,51,8.70
2019,04,07,00,52,8.70
2019,04,07,00,53,8.70
2019,04,07,00,54,8.80
2019,04,07,00,55,8.80
2019,04,07,00,56,8.80
2019,04,07,00,57,8.80
2019,04,07,00,58,8.90
2019,04,07,00,59,8.90
2019,04,07,01,00,8.90
2019,04,07,01,01,8.90
2019,04,07,01,02,9.00
2019,04,07,01,03,9.00
2019,04,07,01,04,9.00
2019,04,07,01,05,9.10
2019,04,07,01,06,9.10
2019,04,07,01,07,9.10
2019,04,07,01,08,9.10
2019,04,07,01,09,9.10
2019,04,07,01,10,9.20
2019,04,07,01,11,9.20
2019,04,07,01,12,9.20
2019,04,07,01,13,9.20
2019,04,07,01,14,9.20
2019,04,07,01,15,9.20
2019,04,07,01,16,9.20
2019,04,07,01,17,9.20
2019,04,07,01,18,9.20
2019,04,07,01,19,9.20
2019,04,07,01,20,9.20
2019,04,07,01,21,9.20
2019,04,07,01,22,9.10
2019,04,07,01,23,9.10
2019,04,07,01,24,9.10
2019,04,07,01,25,9.10
2019,04,07,01,26,9.10
2019,04,07,01,27,9.10
2019,04,07,01,28,9.10
2019,04,07,01,29,9.10
2019,04,07,01,30,9.10
2019,04,07,01,31,9.10
2019,04,07,01,32,9.10
2019,04,07,01,33,9.10
2019,04,07,01,34,9.10
2019,04,07,01,35,9.10
2019,04,07,01,36,9.10
2019,04,07,01,37,9.00
2019,04,07,01,38,9.00
2019,04,07,01,39,9.00
2019,04,07,01,40,9.00
2019,04,07,01,41,9.00
2019,04,07,01,42,9.00
2019,04,07,01,43,9.00
2019,04,07,01,44,9.00
2019,04,07,01,45,8.90
2019,04,07,01,46,8.90
2019,04,07,01,47,8.90
2019,04,07,01,48,8.90
2019,04,07,01,49,9.00
2019,04,07,01,50,9.00
2019,04,07,01,51,9.00
2019,04,07,01,52,9.00
2019,04,07,01,53,9.00
2019,04,07,01,54,9.00
2019,04,07,01,55,9.00
2019,04,07,01,56,9.00
2019,04,07,01,57,9.00
2019,04,07,01,58,9.00
2019,04,07,01,59,9.00
2019,04,07,02,00,9.00
2019,04,07,02,01,8.90
2019,04,07,02,02,8.90
2019,04,07,02,03,8.90
2019,04,07,02,04,8.90
2019,04,07,02,05,8.90
2019,04,07,02,06,8.80
2019,04,07,02,07,8.80
2019,04,07,02,08,8.80
2019,04,07,02,09,8.70
2019,04,07,02,10,8.70
2019,04,07,02,11,8.70
2019,04,07,02,12,8.70
2019,04,07,02,13,8.70
2019,04,07,02,14,8.70
2019,04,07,02,15,8.70
2019,04,07,02,16,8.70
2019,04,07,02,17,8.70
2019,04,07,02,18,8.70
2019,04,07,02,19,8.70
2019,04,07,02,20,8.60
2019,04,07,02,21,8.60
2019,04,07,02,22,8.60
2019,04,07,02,23,8.60
2019,04,07,02,24,8.70
2019,04,07,02,25,8.70
2019,04,07,02,26,8.70
2019,04,07,02,27,8.70
2019,04,07,02,28,8.70
2019,04,07,02,29,8.70
2019,04,07,02,30,8.70
2019,04,07,02,31,8.70
2019,04,07,02,32,8.70
2019,04,07,02,33,8.70
2019,04,07,02,34,8.70
2019,04,07,02,35,8.70
2019,04,07,02,36,8.70
2019,04,07,02,37,8.70
2019,04,07,02,38,8.70
2019,04,07,02,39,8.70
2019,04,07,02,40,8.70
2019,04,07,02,41,8.70
2019,04,07,02,42,8.70
2019,04,07,02,43,8.70
2019,04,07,02,44,8.70
2019,04,07,02,45,8.70
2019,04,07,02,46,8.70
2019,04,07,02,47,8.70
2019,04,07,02,48,8.70
2019,04,07,02,49,8.70
2019,04,07,02,50,8.70
2019,04,07,02,51,8.70
2019,04,07,02,52,8.70
2019,04,07,02,53,8.70
2019,04,07,02,54,8.70
2019,04,07,02,55,8.70
2019,04,07,02,56,8.70
2019,04,07,02,57,8.60
2019,04,07,02,58,8.60
2019,04,07,02,59,8.50
2019,04,07,03,00,8.50
2019,04,07,03,01,8.40
2019,04,07,03,02,8.40
2019,04,07,03,03,8.40
2019,04,07,03,04,8.30
2019,04,07,03,05,8.30
2019,04,07,03,06,8.30
2019,04,07,03,07,8.30
2019,04,07,03,08,8.30
2019,04,07,03,09,8.30
2019,04,07,03,10,8.30
2019,04,07,03,11,8.30
2019,04,07,03,12,8.30
2019,04,07,03,13,8.40
2019,04,07,03,14,8.40
2019,04,07,03,15,8.40
2019,04,07,03,16,8.40
2019,04,07,03,17,8.40
2019,04,07,03,18,8.40
2019,04,07,03,19,8.40
2019,04,07,03,20,8.40
2019,04,07,03,21,8.40
2019,04,07,03,22,8.40
2019,04,07,03,23,8.40
2019,04,07,03,24,8.40
2019,04,07,03,25,8.40
2019,04,07,03,26,8.50
2019,04,07,03,27,8.50
2019,04,07,03,28,8.50
2019,04,07,03,29,8.50
2019,04,07,03,30,8.50
2019,04,07,03,31,8.50
2019,04,07,03,32,8.50
2019,04,07,03,33,8.50
2019,04,07,03,34,8.50
2019,04,07,03,35,8.50
2019,04,07,03,36,8.50
2019,04,07,03,37,8.50
2019,04,07,03,38,8.50
2019,04,07,03,39,8.50
2019,04,07,03,40,8.50
2019,04,07,03,41,8.50
2019,04,07,03,42,8.50
2019,04,07,03,43,8.50
2019,04,07,03,44,8.50
2019,04,07,03,45,8.50
2019,04,07,03,46,8.50
2019,04,07,03,47,8.40
2019,04,07,03,48,8.40
2019,04,07,03,49,8.30
2019,04,07,03,50,8.30
2019,04,07,03,51,8.30
2019,04,07,03,52,8.20
2019,04,07,03,53,8.20
2019,04,07,03,54,8.20
2019,04,07,03,55,8.30
2019,04,07,03,56,8.30
2019,04,07,03,57,8.30
2019,04,07,03,58,8.30
2019,04,07,03,59,8.30
2019,04,07,04,00,8.40
2019,04,07,04,02,8.40
2019,04,07,04,03,8.30
2019,04,07,04,04,8.20
2019,04,07,04,06,8.20
2019,04,07,04,07,8.10
2019,04,07,04,08,8.00
2019,04,07,04,09,8.00
2019,04,07,04,11,7.90
2019,04,07,04,12,7.90
2019,04,07,04,13,7.80
2019,04,07,04,14,7.80
2019,04,07,04,16,7.80
2019,04,07,04,17,7.80
2019,04,07,04,18,7.80
2019,04,07,04,19,7.80
2019,04,07,04,21,7.80
2019,04,07,04,22,7.80
2019,04,07,04,23,7.80
2019,04,07,04,24,7.80
2019,04,07,04,26,7.80
2019,04,07,04,27,7.80
2019,04,07,04,28,7.80
2019,04,07,04,29,7.80
2019,04,07,04,31,7.80
2019,04,07,04,32,7.80
2019,04,07,04,33,7.80
2019,04,07,04,34,7.80
2019,04,07,04,36,7.80
2019,04,07,04,37,7.80
2019,04,07,04,38,7.80
2019,04,07,04,39,7.70
2019,04,07,04,41,7.70
2019,04,07,04,42,7.70
2019,04,07,04,43,7.70
2019,04,07,04,44,7.70
2019,04,07,04,46,7.70
2019,04,07,04,47,7.70
2019,04,07,04,48,7.70
2019,04,07,04,49,7.70
2019,04,07,04,51,7.70
2019,04,07,04,52,7.70
2019,04,07,04,53,7.70
2019,04,07,04,54,7.70
2019,04,07,04,56,7.70
2019,04,07,04,57,7.70
2019,04,07,04,58,7.60
2019,04,07,04,59,7.60
2019,04,07,05,01,7.60
2019,04,07,05,02,7.50
2019,04,07,05,03,7.50
2019,04,07,05,04,7.50
2019,04,07,05,06,7.50
2019,04,07,05,07,7.50
2019,04,07,05,08,7.50
2019,04,07,05,09,7.50
2019,04,07,05,11,7.40
2019,04,07,05,12,7.40
2019,04,07,05,13,7.40
2019,04,07,05,14,7.40
2019,04,07,05,16,7.30
2019,04,07,05,17,7.30
2019,04,07,05,18,7.30
2019,04,07,05,19,7.30
2019,04,07,05,20,7.30
2019,04,07,05,21,7.30
2019,04,07,05,22,7.30
2019,04,07,05,23,7.30
2019,04,07,05,24,7.30
2019,04,07,05,25,7.30
2019,04,07,05,26,7.30
2019,04,07,05,27,7.30
2019,04,07,05,28,7.30
2019,04,07,05,29,7.30
2019,04,07,05,30,7.30
2019,04,07,05,31,7.30
2019,04,07,05,32,7.30
2019,04,07,05,33,7.30
2019,04,07,05,34,7.30
2019,04,07,05,35,7.30
2019,04,07,05,36,7.30
2019,04,07,05,37,7.30
2019,04,07,05,38,7.30
2019,04,07,05,39,7.30
2019,04,07,05,40,7.30
2019,04,07,05,41,7.30
2019,04,07,05,42,7.30
2019,04,07,05,43,7.30
2019,04,07,05,44,7.30
2019,04,07,05,45,7.30
2019,04,07,05,46,7.20
2019,04,07,05,47,7.20
2019,04,07,05,48,7.20
2019,04,07,05,49,7.20
2019,04,07,05,50,7.10
2019,04,07,05,51,7.10
2019,04,07,05,52,7.10
2019,04,07,05,53,7.00
2019,04,07,05,54,7.00
2019,04,07,05,55,7.00
2019,04,07,05,56,7.00
2019,04,07,05,57,6.90
2019,04,07,05,58,6.90
2019,04,07,05,59,6.90
2019,04,07,06,00,6.80
2019,04,07,06,01,6.80
2019,04,07,06,02,6.80
2019,04,07,06,03,6.80
2019,04,07,06,04,6.80
2019,04,07,06,05,6.80
2019,04,07,06,06,6.80
2019,04,07,06,07,6.70
2019,04,07,06,08,6.70
2019,04,07,06,09,6.60
2019,04,07,06,10,6.60
2019,04,07,06,11,6.60
2019,04,07,06,12,6.60
2019,04,07,06,13,6.60
2019,04,07,06,14,6.60
2019,04,07,06,15,6.40
2019,04,07,06,16,6.40
2019,04,07,06,17,6.40
2019,04,07,06,18,6.40
2019,04,07,06,19,6.40
2019,04,07,06,20,6.40
2019,04,07,06,21,6.40
2019,04,07,06,22,6.40
2019,04,07,06,23,6.30
2019,04,07,06,24,6.30
2019,04,07,06,25,6.30
2019,04,07,06,26,6.20
2019,04,07,06,27,6.20
2019,04,07,06,28,6.20
2019,04,07,06,29,6.20
2019,04,07,06,30,6.20
2019,04,07,06,32,6.10
2019,04,07,06,33,6.00
2019,04,07,06,34,6.00
2019,04,07,06,35,6.00
2019,04,07,06,36,5.90
2019,04,07,06,37,5.90
2019,04,07,06,38,5.90
2019,04,07,06,39,5.80
2019,04,07,06,40,5.80
2019,04,07,06,41,5.80
2019,04,07,06,42,5.70
2019,04,07,06,43,5.70
2019,04,07,06,44,5.70
2019,04,07,06,45,5.70
2019,04,07,06,46,5.70
2019,04,07,06,47,5.70
2019,04,07,06,48,5.70
2019,04,07,06,49,5.70
2019,04,07,06,50,5.70
2019,04,07,06,51,5.70
2019,04,07,06,52,5.70
2019,04,07,06,53,5.70
2019,04,07,06,54,5.70
2019,04,07,06,55,5.70
2019,04,07,06,56,5.70
2019,04,07,06,57,5.70
2019,04,07,06,58,5.80
2019,04,07,06,59,5.80
2019,04,07,07,00,5.80
2019,04,07,07,01,5.80
2019,04,07,07,02,5.80
2019,04,07,07,03,5.80
2019,04,07,07,04,5.80
2019,04,07,07,05,5.80
2019,04,07,07,06,5.80
2019,04,07,07,07,5.80
2019,04,07,07,08,5.90
2019,04,07,07,09,5.90
2019,04,07,07,10,5.90
2019,04,07,07,11,5.90
2019,04,07,07,12,5.90
2019,04,07,07,13,5.90
2019,04,07,07,14,6.00
2019,04,07,07,15,6.00
2019,04,07,07,16,6.00
2019,04,07,07,17,6.00
2019,04,07,07,18,6.00
2019,04,07,07,19,6.00
2019,04,07,07,20,6.10
2019,04,07,07,21,6.10
2019,04,07,07,22,6.10
2019,04,07,07,23,6.10
2019,04,07,07,24,6.10
2019,04,07,07,25,6.10
2019,04,07,07,26,6.10
2019,04,07,07,27,6.20
2019,04,07,07,28,6.20
2019,04,07,07,29,6.20
2019,04,07,07,30,6.20
2019,04,07,07,31,6.20
2019,04,07,07,32,6.20
2019,04,07,07,33,6.20
2019,04,07,07,34,6.20
2019,04,07,07,35,6.20
2019,04,07,07,36,6.20
2019,04,07,07,37,6.30
2019,04,07,07,38,6.30
2019,04,07,07,39,6.30
2019,04,07,07,40,6.40
2019,04,07,07,41,6.40
2019,04,07,07,42,6.40
2019,04,07,07,43,6.60
2019,04,07,07,44,6.60
2019,04,07,07,45,6.70
2019,04,07,07,46,6.80
2019,04,07,07,47,6.80
2019,04,07,07,48,6.90
2019,04,07,07,49,7.00
2019,04,07,07,50,7.00
2019,04,07,07,51,7.10
2019,04,07,07,52,7.30
2019,04,07,07,53,7.30
2019,04,07,07,54,7.40
2019,04,07,07,55,7.50
2019,04,07,07,56,7.60
2019,04,07,07,57,7.60
2019,04,07,07,58,7.70
2019,04,07,07,59,7.80
2019,04,07,08,00,7.80
2019,04,07,08,01,7.90
2019,04,07,08,02,8.00
2019,04,07,08,03,8.10
2019,04,07,08,04,8.20
2019,04,07,08,05,8.20
2019,04,07,08,06,8.20
2019,04,07,08,07,8.30
2019,04,07,08,08,8.30
2019,04,07,08,09,8.40
2019,04,07,08,10,8.50
2019,04,07,08,11,8.50
2019,04,07,08,12,8.60
2019,04,07,08,13,8.60
2019,04,07,08,14,8.70
2019,04,07,08,15,8.70
2019,04,07,08,16,8.70
2019,04,07,08,17,8.70
2019,04,07,08,18,8.80
2019,04,07,08,19,8.80
2019,04,07,08,20,8.80
2019,04,07,08,22,8.90
2019,04,07,08,24,8.90
2019,04,07,08,26,9.00
2019,04,07,08,27,9.00
2019,04,07,08,28,9.10
2019,04,07,08,29,9.10
2019,04,07,08,31,9.20
2019,04,07,08,32,9.20
2019,04,07,08,33,9.20
2019,04,07,08,34,9.20
2019,04,07,08,36,9.30
2019,04,07,08,37,9.30
2019,04,07,08,38,9.30
2019,04,07,08,39,9.40
2019,04,07,08,41,9.40
2019,04,07,08,42,9.50
2019,04,07,08,43,9.50
2019,04,07,08,44,9.50
2019,04,07,08,46,9.50
2019,04,07,08,47,9.60
2019,04,07,08,48,9.60
2019,04,07,08,49,9.60
2019,04,07,08,51,9.60
2019,04,07,08,52,9.70
2019,04,07,08,53,9.70
2019,04,07,08,54,9.70
2019,04,07,08,56,9.80
2019,04,07,08,57,9.90
2019,04,07,08,58,9.90
2019,04,07,08,59,9.90
2019,04,07,09,01,9.90
2019,04,07,09,02,9.90
2019,04,07,09,03,10.10
2019,04,07,09,04,10.10
2019,04,07,09,06,10.10
2019,04,07,09,07,10.20
2019,04,07,09,08,10.30
2019,04,07,09,09,10.30
2019,04,07,09,11,10.40
2019,04,07,09,12,10.40
2019,04,07,09,13,10.40
2019,04,07,09,14,10.60
2019,04,07,09,16,10.60
2019,04,07,09,17,10.60
2019,04,07,09,18,10.60
2019,04,07,09,19,10.60
2019,04,07,09,21,10.60
2019,04,07,09,22,10.70
2019,04,07,09,23,10.70
2019,04,07,09,24,10.80
2019,04,07,09,26,10.90
2019,04,07,09,27,10.90
2019,04,07,09,28,10.90
2019,04,07,09,29,10.90
2019,04,07,09,31,10.80
2019,04,07,09,32,10.80
2019,04,07,09,33,10.80
2019,04,07,09,34,10.80
2019,04,07,09,36,10.80
2019,04,07,09,37,10.80
2019,04,07,09,38,10.80
2019,04,07,09,39,10.90
2019,04,07,09,41,10.90
2019,04,07,09,42,10.90
2019,04,07,09,43,10.90
2019,04,07,09,44,10.90
2019,04,07,09,46,10.80
2019,04,07,09,47,10.80
2019,04,07,09,48,10.70
2019,04,07,09,49,10.60
2019,04,07,09,51,10.60
2019,04,07,09,52,10.60
2019,04,07,09,53,10.60
2019,04,07,09,54,10.40
2019,04,07,09,56,10.40
2019,04,07,09,57,10.60
2019,04,07,09,58,10.60
2019,04,07,09,59,10.60
2019,04,07,10,01,10.60
2019,04,07,10,02,10.60
2019,04,07,10,03,10.60
2019,04,07,10,04,10.70
2019,04,07,10,06,10.70
2019,04,07,10,07,10.80
2019,04,07,10,08,10.80
2019,04,07,10,09,10.70
2019,04,07,10,10,10.70
2019,04,07,10,11,10.60
2019,04,07,10,12,10.60
2019,04,07,10,13,10.40
2019,04,07,10,14,10.40
2019,04,07,10,15,10.40
2019,04,07,10,16,10.30
2019,04,07,10,17,10.20
2019,04,07,10,18,10.20
2019,04,07,10,19,10.10
2019,04,07,10,20,10.10
2019,04,07,10,21,10.10
2019,04,07,10,22,10.10
2019,04,07,10,23,10.20
2019,04,07,10,24,10.20
2019,04,07,10,25,10.20
2019,04,07,10,26,10.30
2019,04,07,10,27,10.40
2019,04,07,10,28,10.40
2019,04,07,10,29,10.60
2019,04,07,10,30,10.60
2019,04,07,10,31,10.60
2019,04,07,10,32,10.70
2019,04,07,10,33,10.70
2019,04,07,10,34,10.70
2019,04,07,10,35,10.70
2019,04,07,10,36,10.70
2019,04,07,10,37,10.70
2019,04,07,10,38,10.70
2019,04,07,10,39,10.70
2019,04,07,10,40,10.70
2019,04,07,10,41,10.80
2019,04,07,10,42,10.80
2019,04,07,10,43,10.90
2019,04,07,10,44,10.90
2019,04,07,10,45,10.90
2019,04,07,10,46,10.90
2019,04,07,10,47,11.10
2019,04,07,10,48,11.10
2019,04,07,10,49,11.10
2019,04,07,10,50,11.10
2019,04,07,10,51,11.10
2019,04,07,10,52,11.10
2019,04,07,10,53,11.20
2019,04,07,10,54,11.20
2019,04,07,10,55,11.20
2019,04,07,10,56,11.20
2019,04,07,10,57,11.20
2019,04,07,10,58,11.10
2019,04,07,10,59,11.10
2019,04,07,11,00,11.10
2019,04,07,11,01,11.10
2019,04,07,11,02,11.10
2019,04,07,11,03,11.10
2019,04,07,11,04,11.10
2019,04,07,11,05,11.10
2019,04,07,11,06,11.10
2019,04,07,11,07,10.90
2019,04,07,11,08,10.90
2019,04,07,11,09,10.90
2019,04,07,11,10,10.90
2019,04,07,11,11,11.10
2019,04,07,11,12,10.90
2019,04,07,11,13,11.10
2019,04,07,11,14,11.10
2019,04,07,11,15,11.10
2019,04,07,11,16,11.10
2019,04,07,11,17,11.10
2019,04,07,11,18,11.20
2019,04,07,11,19,11.30
2019,04,07,11,20,11.40
2019,04,07,11,21,11.40
2019,04,07,11,22,11.30
2019,04,07,11,23,11.30
2019,04,07,11,24,11.30
2019,04,07,11,25,11.40
2019,04,07,11,26,11.40
2019,04,07,11,27,11.40
2019,04,07,11,28,11.40
2019,04,07,11,29,11.40
2019,04,07,11,30,11.40
2019,04,07,11,31,11.40
2019,04,07,11,32,11.40
2019,04,07,11,33,11.40
2019,04,07,11,34,11.30
2019,04,07,11,35,11.30
2019,04,07,11,36,11.30
2019,04,07,11,37,11.30
2019,04,07,11,38,11.20
2019,04,07,11,39,11.20
2019,04,07,11,40,11.20
2019,04,07,11,41,11.20
2019,04,07,11,42,11.20
2019,04,07,11,43,11.30
2019,04,07,11,44,11.30
2019,04,07,11,45,11.40
2019,04,07,11,46,11.40
2019,04,07,11,47,11.40
2019,04,07,11,48,11.60
2019,04,07,11,49,11.60
2019,04,07,11,50,11.60
2019,04,07,11,51,11.60
2019,04,07,11,52,11.70
2019,04,07,11,53,11.80
2019,04,07,11,54,11.80
2019,04,07,11,55,11.80
2019,04,07,11,56,11.80
2019,04,07,11,57,11.80
2019,04,07,11,58,11.80
2019,04,07,11,59,11.80
2019,04,07,12,00,11.80
2019,04,07,12,01,11.80
2019,04,07,12,02,11.80
2019,04,07,12,03,11.80
2019,04,07,12,04,11.90
2019,04,07,12,05,11.90
2019,04,07,12,06,11.90
2019,04,07,12,07,12.00
2019,04,07,12,08,12.00
2019,04,07,12,09,12.00
2019,04,07,12,10,12.00
2019,04,07,12,11,12.10
2019,04,07,12,12,12.10
2019,04,07,12,13,12.10
2019,04,07,12,14,12.10
2019,04,07,12,15,12.00
2019,04,07,12,16,12.00
2019,04,07,12,17,11.90
2019,04,07,12,18,11.80
2019,04,07,12,19,11.80
2019,04,07,12,20,11.80
2019,04,07,12,21,11.70
2019,04,07,12,22,11.70
2019,04,07,12,23,11.70
2019,04,07,12,24,11.70
2019,04,07,12,25,11.70
2019,04,07,12,26,11.80
2019,04,07,12,27,11.80
2019,04,07,12,28,11.80
2019,04,07,12,29,11.90
2019,04,07,12,30,11.90
2019,04,07,12,32,12.00
2019,04,07,12,33,12.00
2019,04,07,12,34,12.10
2019,04,07,12,35,12.10
2019,04,07,12,36,12.10
2019,04,07,12,37,12.00
2019,04,07,12,38,12.00
2019,04,07,12,39,12.00
2019,04,07,12,40,12.00
2019,04,07,12,41,12.00
2019,04,07,12,42,12.00
2019,04,07,12,43,12.10
2019,04,07,12,44,12.10
2019,04,07,12,45,12.20
2019,04,07,12,46,12.20
2019,04,07,12,47,12.20
2019,04,07,12,48,12.20
2019,04,07,12,49,12.20
2019,04,07,12,50,12.20
2019,04,07,12,51,12.20
2019,04,07,12,52,12.20
2019,04,07,12,53,12.20
2019,04,07,12,54,12.20
2019,04,07,12,55,12.20
2019,04,07,12,56,12.20
2019,04,07,12,57,12.20
2019,04,07,12,58,12.30
2019,04,07,12,59,12.30
2019,04,07,13,00,12.30
2019,04,07,13,01,12.30
2019,04,07,13,02,12.20
2019,04,07,13,03,12.10
2019,04,07,13,04,12.10
2019,04,07,13,05,12.00
2019,04,07,13,06,12.00
2019,04,07,13,07,12.00
2019,04,07,13,08,12.00
2019,04,07,13,09,12.00
2019,04,07,13,10,12.00
2019,04,07,13,11,12.00
2019,04,07,13,12,12.00
2019,04,07,13,13,12.00
2019,04,07,13,14,12.00
2019,04,07,13,16,12.00
2019,04,07,13,17,12.00
2019,04,07,13,19,12.00
2019,04,07,13,21,12.00
2019,04,07,13,22,12.00
2019,04,07,13,23,12.00
2019,04,07,13,24,12.00
2019,04,07,13,26,12.00
2019,04,07,13,27,12.00
2019,04,07,13,28,12.00
2019,04,07,13,29,12.00
2019,04,07,13,31,11.90
2019,04,07,13,32,11.80
2019,04,07,13,33,11.80
2019,04,07,13,34,11.80
2019,04,07,13,36,11.70
2019,04,07,13,37,11.70
2019,04,07,13,38,11.70
2019,04,07,13,39,11.80
2019,04,07,13,41,11.80
2019,04,07,13,42,11.80
2019,04,07,13,43,11.80
2019,04,07,13,44,11.80
2019,04,07,13,46,11.90
2019,04,07,13,47,11.90
2019,04,07,13,48,11.90
2019,04,07,13,49,11.90
2019,04,07,13,51,11.90
2019,04,07,13,52,11.90
2019,04,07,13,53,11.90
2019,04,07,13,54,12.00
2019,04,07,13,56,12.00
2019,04,07,13,57,11.90
2019,04,07,13,58,12.00
2019,04,07,13,59,12.00
2019,04,07,14,01,12.00
2019,04,07,14,02,12.00
2019,04,07,14,03,12.00
2019,04,07,14,04,12.00
2019,04,07,14,06,12.00
2019,04,07,14,07,12.00
2019,04,07,14,08,12.00
2019,04,07,14,09,12.00
2019,04,07,14,11,12.00
2019,04,07,14,12,12.00
2019,04,07,14,13,12.00
2019,04,07,14,14,12.00
2019,04,07,14,16,12.00
2019,04,07,14,17,12.00
2019,04,07,14,18,12.00
2019,04,07,14,19,12.00
2019,04,07,14,21,12.10
2019,04,07,14,22,12.10
2019,04,07,14,23,12.20
2019,04,07,14,24,12.20
2019,04,07,14,26,12.20
2019,04,07,14,27,12.30
2019,04,07,14,28,12.30
2019,04,07,14,29,12.30
2019,04,07,14,31,12.30
2019,04,07,14,32,12.30
2019,04,07,14,33,12.30
2019,04,07,14,34,12.30
2019,04,07,14,36,12.30
2019,04,07,14,37,12.30
2019,04,07,14,38,12.30
2019,04,07,14,39,12.20
2019,04,07,14,41,12.00
2019,04,07,14,42,12.00
2019,04,07,14,43,12.00
2019,04,07,14,44,12.00
2019,04,07,14,45,12.00
2019,04,07,14,46,12.00
2019,04,07,14,47,12.00
2019,04,07,14,48,11.90
2019,04,07,14,49,11.90
2019,04,07,14,50,11.90
2019,04,07,14,51,11.80
2019,04,07,14,52,11.80
2019,04,07,14,53,11.90
2019,04,07,14,54,12.00
2019,04,07,14,55,12.00
2019,04,07,14,56,12.10
2019,04,07,14,57,12.20
2019,04,07,14,58,12.20
2019,04,07,14,59,12.20
2019,04,07,15,00,12.20
2019,04,07,15,01,12.20
2019,04,07,15,02,12.20
2019,04,07,15,03,12.20
2019,04,07,15,04,12.20
2019,04,07,15,05,12.20
2019,04,07,15,06,12.20
2019,04,07,15,07,12.20
2019,04,07,15,08,12.20
2019,04,07,15,09,12.20
2019,04,07,15,10,12.20
2019,04,07,15,11,12.20
2019,04,07,15,12,12.20
2019,04,07,15,13,12.20
2019,04,07,15,14,12.20
2019,04,07,15,15,12.20
2019,04,07,15,16,12.20
2019,04,07,15,17,12.30
2019,04,07,15,18,12.30
2019,04,07,15,19,12.30
2019,04,07,15,20,12.30
2019,04,07,15,21,12.30
2019,04,07,15,22,12.30
2019,04,07,15,23,12.30
2019,04,07,15,24,12.30
2019,04,07,15,25,12.30
2019,04,07,15,26,12.20
2019,04,07,15,27,12.10
2019,04,07,15,28,12.00
2019,04,07,15,29,11.90
2019,04,07,15,30,11.90
2019,04,07,15,31,11.80
2019,04,07,15,32,11.80
2019,04,07,15,33,11.80
2019,04,07,15,34,11.80
2019,04,07,15,35,11.80
2019,04,07,15,36,11.80
2019,04,07,15,37,11.80
2019,04,07,15,38,11.80
2019,04,07,15,39,11.80
2019,04,07,15,40,11.80
2019,04,07,15,41,11.80
2019,04,07,15,42,11.80
2019,04,07,15,43,11.80
2019,04,07,15,44,11.90
2019,04,07,15,45,11.90
2019,04,07,15,46,12.00
2019,04,07,15,47,12.00
2019,04,07,15,48,12.00
2019,04,07,15,49,12.00
2019,04,07,15,50,12.00
2019,04,07,15,51,12.00
2019,04,07,15,52,12.00
2019,04,07,15,53,11.90
2019,04,07,15,54,11.90
2019,04,07,15,55,11.90
2019,04,07,15,56,11.90
2019,04,07,15,57,11.90
2019,04,07,15,58,11.80
2019,04,07,15,59,11.80
2019,04,07,16,00,11.80
2019,04,07,16,01,11.90
2019,04,07,16,02,11.90
2019,04,07,16,03,11.90
2019,04,07,16,04,12.00
2019,04,07,16,05,12.00
2019,04,07,16,06,12.00
2019,04,07,16,07,12.00
2019,04,07,16,08,12.00
2019,04,07,16,09,12.10
2019,04,07,16,10,12.10
2019,04,07,16,11,12.10
2019,04,07,16,12,12.10
2019,04,07,16,13,12.20
2019,04,07,16,14,12.20
2019,04,07,16,15,12.20
2019,04,07,16,16,12.20
2019,04,07,16,17,12.20
2019,04,07,16,18,12.10
2019,04,07,16,19,12.10
2019,04,07,16,20,12.10
2019,04,07,16,21,12.10
2019,04,07,16,22,12.10
2019,04,07,16,23,12.10
2019,04,07,16,24,12.10
2019,04,07,16,25,12.00
2019,04,07,16,26,12.00
2019,04,07,16,27,12.00
2019,04,07,16,28,11.90
2019,04,07,16,29,11.90
2019,04,07,16,30,11.90
2019,04,07,16,31,11.90
2019,04,07,16,32,11.80
2019,04,07,16,33,11.80
2019,04,07,16,34,11.80
2019,04,07,16,35,11.70
2019,04,07,16,36,11.60
2019,04,07,16,37,11.60
2019,04,07,16,38,11.60
2019,04,07,16,39,11.40
2019,04,07,16,40,11.40
2019,04,07,16,41,11.40
2019,04,07,16,42,11.40
2019,04,07,16,43,11.40
2019,04,07,16,44,11.60
2019,04,07,16,45,11.60
2019,04,07,16,46,11.60
2019,04,07,16,47,11.60
2019,04,07,16,48,11.70
2019,04,07,16,49,11.70
2019,04,07,16,50,11.80
2019,04,07,16,51,11.80
2019,04,07,16,52,11.80
2019,04,07,16,53,11.80
2019,04,07,16,54,11.70
2019,04,07,16,55,11.70
2019,04,07,16,56,11.70
2019,04,07,16,57,11.80
2019,04,07,16,58,11.80
2019,04,07,16,59,11.70
2019,04,07,17,00,11.70
2019,04,07,17,01,11.70
2019,04,07,17,02,11.70
2019,04,07,17,03,11.70
2019,04,07,17,04,11.70
2019,04,07,17,05,11.70
2019,04,07,17,06,11.70
2019,04,07,17,07,11.70
2019,04,07,17,08,11.70
2019,04,07,17,09,11.70
2019,04,07,17,10,11.60
2019,04,07,17,11,11.60
2019,04,07,17,12,11.70
2019,04,07,17,13,11.70
2019,04,07,17,14,11.70
2019,04,07,17,15,11.70
2019,04,07,17,16,11.70
2019,04,07,17,17,11.70
2019,04,07,17,18,11.70
2019,04,07,17,19,11.70
2019,04,07,17,20,11.80
2019,04,07,17,21,11.80
2019,04,07,17,22,11.80
2019,04,07,17,23,11.80
2019,04,07,17,24,11.90
2019,04,07,17,25,11.90
2019,04,07,17,26,11.90
2019,04,07,17,27,12.00
2019,04,07,17,28,12.00
2019,04,07,17,29,12.00
2019,04,07,17,30,12.00
2019,04,07,17,31,12.00
2019,04,07,17,32,12.00
2019,04,07,17,33,12.10
2019,04,07,17,34,12.10
2019,04,07,17,35,12.10
2019,04,07,17,36,12.10
2019,04,07,17,37,12.10
2019,04,07,17,38,12.10
2019,04,07,17,39,12.10
2019,04,07,17,40,12.20
2019,04,07,17,41,12.20
2019,04,07,17,42,12.20
2019,04,07,17,43,12.30
2019,04,07,17,44,12.30
2019,04,07,17,45,12.30
2019,04,07,17,46,12.30
2019,04,07,17,47,12.30
2019,04,07,17,48,12.30
2019,04,07,17,49,12.30
2019,04,07,17,50,12.30
2019,04,07,17,51,12.30
2019,04,07,17,52,12.40
2019,04,07,17,53,12.40
2019,04,07,17,54,12.40
2019,04,07,17,56,12.40
2019,04,07,17,57,12.40
2019,04,07,17,58,12.40
2019,04,07,17,59,12.40
2019,04,07,18,01,12.30
2019,04,07,18,02,12.30
2019,04,07,18,03,12.30
2019,04,07,18,04,12.30
2019,04,07,18,06,12.30
2019,04,07,18,07,12.30
2019,04,07,18,08,12.30
2019,04,07,18,09,12.30
2019,04,07,18,11,12.30
2019,04,07,18,12,12.30
2019,04,07,18,13,12.30
2019,04,07,18,14,12.30
2019,04,07,18,16,12.30
2019,04,07,18,17,12.30
2019,04,07,18,18,12.30
2019,04,07,18,19,12.30
2019,04,07,18,21,12.30
2019,04,07,18,22,12.20
2019,04,07,18,23,12.10
2019,04,07,18,24,12.00
2019,04,07,18,26,11.90
2019,04,07,18,27,11.80
2019,04,07,18,28,11.80
2019,04,07,18,29,11.80
2019,04,07,18,30,11.70
2019,04,07,18,32,11.70
2019,04,07,18,33,11.70
2019,04,07,18,34,11.70
2019,04,07,18,36,11.70
2019,04,07,18,37,11.70
2019,04,07,18,38,11.70
2019,04,07,18,39,11.70
2019,04,07,18,41,11.70
2019,04,07,18,42,11.70
2019,04,07,18,43,11.70
2019,04,07,18,44,11.70
2019,04,07,18,46,11.70
2019,04,07,18,47,11.70
2019,04,07,18,48,11.70
2019,04,07,18,49,11.70
2019,04,07,18,51,11.70
2019,04,07,18,52,11.70
2019,04,07,18,53,11.70
2019,04,07,18,54,11.70
2019,04,07,18,56,11.70
2019,04,07,18,57,11.70
2019,04,07,18,58,11.70
2019,04,07,18,59,11.70
2019,04,07,19,01,11.60
2019,04,07,19,02,11.60
2019,04,07,19,03,11.60
2019,04,07,19,04,11.60
2019,04,07,19,06,11.40
2019,04,07,19,07,11.40
2019,04,07,19,08,11.40